TimeMDT,TemperatureF,Dew PointF,Humidity,Sea Level PressureIn,VisibilityMPH,Wind Direction,Wind SpeedMPH,Gust SpeedMPH,PrecipitationIn,Events,Conditions,WindDirDegrees,DateUTC
12:53 AM,48.0,12.9,24,29.94,10.0,SSW,4.6,-,N/A,,Clear,210,2012-10-09 06:53:00
2:53 AM,46.0,12.9,26,29.94,10.0,Calm,Calm,-,N/A,,Clear,0,2012-10-09 08:53:00
3:53 AM,43.0,12.9,30,29.94,10.0,Calm,Calm,-,N/A,,Clear,0,2012-10-09 09:53:00
4:53 AM,37.0,16.0,42,29.98,10.0,Calm,Calm,-,N/A,,Clear,0,2012-10-09 10:53:00
5:53 AM,42.1,14.0,32,29.97,10.0,NW,3.5,-,N/A,,Clear,320,2012-10-09 11:53:00
6:53 AM,39.0,16.0,39,30.01,10.0,Calm,Calm,-,N/A,,Clear,0,2012-10-09 12:53:00
7:53 AM,36.0,18.0,48,30.04,10.0,Calm,Calm,-,N/A,,Clear,0,2012-10-09 13:53:00
8:53 AM,39.9,21.0,47,30.05,10.0,NE,4.6,-,N/A,,Clear,50,2012-10-09 14:53:00
9:53 AM,50.0,14.0,24,30.05,10.0,Calm,Calm,-,N/A,,Clear,0,2012-10-09 15:53:00
10:53 AM,53.1,15.1,22,30.05,10.0,SW,4.6,-,N/A,,Clear,220,2012-10-09 16:53:00
11:53 AM,55.0,18.0,23,30.05,10.0,South,5.8,-,N/A,,Clear,170,2012-10-09 17:53:00
12:53 PM,57.0,17.1,21,30.04,10.0,SSW,4.6,-,N/A,,Clear,210,2012-10-09 18:53:00
1:53 PM,60.1,17.1,19,30.02,10.0,Calm,Calm,-,N/A,,Clear,0,2012-10-09 19:53:00
2:53 PM,63.0,18.0,18,30.00,10.0,WSW,5.8,-,N/A,,Clear,240,2012-10-09 20:53:00
3:53 PM,64.0,17.1,16,29.99,10.0,SW,4.6,-,N/A,,Clear,230,2012-10-09 21:53:00
4:53 PM,64.9,17.1,16,30.00,10.0,WSW,6.9,-,N/A,,Clear,240,2012-10-09 22:53:00
5:53 PM,64.0,18.0,17,29.98,10.0,WSW,5.8,-,N/A,,Clear,250,2012-10-09 23:53:00
6:53 PM,59.0,21.9,24,30.00,10.0,Calm,Calm,-,N/A,,Clear,0,2012-10-10 00:53:00
7:53 PM,52.0,21.0,30,30.03,10.0,Calm,Calm,-,N/A,,Clear,0,2012-10-10 01:53:00
8:53 PM,54.0,18.0,24,30.02,10.0,Calm,Calm,-,N/A,,Clear,0,2012-10-10 02:53:00
9:53 PM,51.1,18.0,27,30.02,10.0,SE,4.6,-,N/A,,Clear,130,2012-10-10 03:53:00
10:53 PM,48.0,19.9,33,30.02,10.0,ESE,5.8,-,N/A,,Clear,110,2012-10-10 04:53:00
11:53 PM,46.9,21.0,36,30.02,10.0,ESE,4.6,-,N/A,,Clear,120,2012-10-10 05:53:00